Date String (YYYY-MM-DD hh:mm:ss) UTC,Instrument flags,Ambient pressure (hPa),Sample flow (lpm),Bypass flow (lpm),Sample temperature (°C),Ambient temperature (°C),ASC tube jacket temperature (°C),LED temperature (°C),Box temperature (°C),Sample RH (%),Span deviation,Mass concentration (μg/m³),Mass concentration (μg/m³),Mass concentration (μg/m³)
DateTimeUTC,F1_M11,P_M11,Q1_M11,Q2_M11,T1_M11,T2_M11,T3_M11,T4_M11,T5_M11,U1_M11,ZSPAN_M11,X0_M11,X2_M11,X1_M11
2022-04-15 16:00:00,,0819.1,5.00,0.00,23.3,22.6,00.0,32.2,25.2,09.8,0000.0,0022.11,0006.25,0004.15
2022-04-15 16:01:00,,0819.1,5.00,0.00,23.4,22.6,00.0,32.2,25.2,09.8,0000.0,0022.24,0006.24,0004.14
2022-04-15 16:02:00,,0819.1,5.00,0.00,23.4,22.6,00.0,32.2,25.2,09.8,0000.1,0021.76,0006.23,0004.12
2022-04-15 16:03:00,,0819.1,5.00,0.00,23.4,22.7,00.0,32.2,25.2,09.8,0000.9,0021.61,0006.22,0004.12
2022-04-15 16:04:00,,0819.0,5.00,0.00,23.4,22.7,00.0,32.2,25.2,09.8,0001.5,0020.53,0006.23,0004.10
2022-04-15 16:05:00,,0819.1,5.01,0.00,23.4,22.7,00.0,32.2,25.2,09.9,0000.0,0019.71,0006.15,0004.08
2022-04-15 16:06:00,,0819.1,5.00,0.00,23.4,22.7,00.0,32.3,25.2,09.8,0000.7,0019.67,0006.06,0004.05
2022-04-15 16:07:00,,0819.2,5.00,0.00,23.4,22.7,00.0,32.3,25.2,09.9,0000.0,0019.83,0006.01,0004.05
2022-04-15 16:08:00,,0819.3,4.99,0.00,23.4,22.7,00.0,32.3,25.2,09.9,0000.0,0019.51,0006.01,0004.05
2022-04-15 16:09:00,,0819.2,5.00,0.00,23.4,22.7,00.0,32.3,25.3,10.0,0000.0,0019.05,0005.95,0004.04
2022-04-15 16:10:00,,0819.3,5.01,0.00,23.4,22.7,00.0,32.3,25.2,10.1,0000.0,0020.41,0005.93,0004.04
2022-04-15 16:11:00,,0819.4,5.00,0.00,23.4,22.7,00.0,32.3,25.2,09.9,0000.0,0018.65,0005.93,0004.04
2022-04-15 16:12:00,,0819.4,4.99,0.00,23.4,22.7,00.0,32.3,25.2,09.9,0000.0,0017.85,0005.97,0004.04
2022-04-15 16:13:00,,0819.4,4.99,0.00,23.4,22.7,00.0,32.3,25.2,09.9,0000.0,0018.10,0005.97,0004.04
2022-04-15 16:14:00,,0819.5,5.00,0.00,23.4,22.6,00.0,32.3,25.2,09.9,0000.0,0019.04,0006.04,0004.06
2022-04-15 16:15:00,,0819.5,5.00,0.00,23.4,22.6,00.0,32.3,25.2,09.8,0000.0,0019.12,0006.01,0004.07
2022-04-15 16:16:00,,0819.4,5.00,0.00,23.4,22.6,00.0,32.3,25.2,09.9,0000.0,0020.25,0006.00,0004.07
2022-04-15 16:17:00,,0819.4,5.01,0.00,23.4,22.6,00.0,32.3,25.2,09.9,0000.0,0020.10,0006.01,0004.07
2022-04-15 16:18:00,,0819.4,5.00,0.00,23.4,22.6,00.0,32.3,25.2,09.9,0000.0,0019.58,0006.00,0004.07
2022-04-15 16:19:00,,0819.4,5.00,0.00,23.4,22.6,00.0,32.3,25.2,10.0,0000.0,0019.75,0006.04,0004.08
2022-04-15 16:20:00,,0819.3,4.99,0.00,23.4,22.7,00.0,32.3,25.2,09.9,0000.0,0020.04,0006.08,0004.11
2022-04-15 16:21:00,,0819.2,5.00,0.00,23.4,22.7,00.0,32.3,25.2,10.2,0000.0,0019.49,0006.17,0004.11
2022-04-15 16:22:00,,0819.3,5.02,0.00,23.4,22.7,00.0,32.3,25.2,10.2,0000.0,0019.74,0006.22,0004.12
2022-04-15 16:23:00,,0819.3,5.00,0.00,23.5,22.7,00.0,32.3,25.3,10.0,0000.0,0019.75,0006.17,0004.13
2022-04-15 16:24:00,,0819.4,5.00,0.00,23.5,22.7,00.0,32.3,25.3,10.0,0000.0,0020.86,0006.19,0004.13
2022-04-15 16:25:00,,0819.4,5.01,0.00,23.5,22.8,00.0,32.3,25.3,10.0,0000.0,0020.71,0006.13,0004.14
2022-04-15 16:26:00,,0819.5,5.00,0.00,23.5,22.8,00.0,32.3,25.3,10.0,0000.0,0020.95,0006.10,0004.14
2022-04-15 16:27:00,,0819.5,5.00,0.00,23.5,22.8,00.0,32.3,25.3,09.9,0000.0,0021.79,0006.19,0004.15
2022-04-15 16:28:00,,0819.5,4.99,0.00,23.5,22.8,00.0,32.3,25.3,10.0,0000.0,0020.87,0006.23,0004.16
2022-04-15 16:29:00,,0819.4,5.00,0.00,23.5,22.8,00.0,32.4,25.3,10.0,0000.0,0021.38,0006.26,0004.17
2022-04-15 16:30:00,,0819.4,5.00,0.00,23.5,22.8,00.0,32.4,25.3,10.3,0000.0,0022.10,0006.30,0004.17
2022-04-15 16:31:00,,0819.3,5.01,0.00,23.5,22.8,00.0,32.4,25.3,10.5,0000.0,0023.46,0006.28,0004.16
2022-04-15 16:32:00,,0819.2,5.00,0.00,23.5,22.8,00.0,32.4,25.3,10.1,0000.0,0022.42,0006.24,0004.16
2022-04-15 16:33:00,,0819.2,5.00,0.00,23.5,22.8,00.0,32.4,25.4,10.1,0000.0,0022.25,0006.20,0004.16
2022-04-15 16:34:00,,0819.2,5.00,0.00,23.5,22.8,00.0,32.4,25.4,10.2,0000.0,0022.69,0006.26,0004.17
2022-04-15 16:35:00,,0819.2,5.01,0.00,23.5,22.8,00.0,32.4,25.3,10.2,0000.0,0024.14,0006.26,0004.16
2022-04-15 16:36:00,,0819.3,5.00,0.00,23.5,22.8,00.0,32.4,25.4,10.3,0000.0,0022.96,0006.25,0004.15
2022-04-15 16:37:00,,0819.2,5.00,0.00,23.5,22.8,00.0,32.4,25.4,10.4,0000.0,0022.95,0006.25,0004.15
2022-04-15 16:38:00,,0819.2,5.00,0.00,23.5,22.8,00.0,32.4,25.4,10.3,0000.0,0022.26,0006.26,0004.15
2022-04-15 16:39:00,,0819.2,5.00,0.00,23.5,22.8,00.0,32.4,25.4,10.2,0000.0,0023.72,0006.26,0004.16
2022-04-15 16:40:00,,0819.2,5.00,0.00,23.5,22.9,00.0,32.4,25.4,10.1,0000.0,0024.30,0006.29,0004.17
2022-04-15 16:41:00,,0819.3,5.00,0.00,23.6,22.8,00.0,32.4,25.4,10.1,0000.0,0025.26,0006.32,0004.19
2022-04-15 16:42:00,,0819.3,5.00,0.00,23.6,22.9,00.0,32.4,25.4,10.2,0000.0,0024.53,0006.31,0004.20
2022-04-15 16:43:00,,0819.3,5.00,0.00,23.6,22.9,00.0,32.4,25.4,10.3,0000.0,0024.69,0006.35,0004.21
2022-04-15 16:44:00,,0819.3,5.00,0.00,23.6,22.9,00.0,32.4,25.5,10.2,0000.0,0024.42,0006.36,0004.22
2022-04-15 16:45:00,,0819.3,4.99,0.00,23.6,22.9,00.0,32.4,25.5,10.2,0000.0,0024.06,0006.36,0004.23
2022-04-15 16:46:00,,0819.3,5.00,0.00,23.6,23.0,00.0,32.5,25.5,10.3,0000.0,0022.47,0006.37,0004.24
2022-04-15 16:47:00,,0819.3,5.01,0.00,23.7,23.0,00.0,32.5,25.5,10.4,0000.0,0022.49,0006.39,0004.25
2022-04-15 16:48:00,,0819.4,5.01,0.00,23.7,23.0,00.0,32.5,25.5,10.2,0000.0,0022.48,0006.41,0004.27
2022-04-15 16:49:00,,0819.4,5.00,0.00,23.7,23.0,00.0,32.5,25.5,10.2,0000.0,0023.28,0006.41,0004.29
2022-04-15 16:50:00,,0819.4,5.00,0.00,23.7,23.0,00.0,32.5,25.5,10.4,0000.0,0022.25,0006.49,0004.29
2022-04-15 16:51:00,,0819.5,5.00,0.00,23.7,23.1,00.0,32.6,25.6,10.2,0000.0,0021.96,0006.47,0004.29
2022-04-15 16:52:00,,0819.4,5.00,0.00,23.8,23.1,00.0,32.6,25.6,10.3,0000.0,0020.99,0006.41,0004.28
2022-04-15 16:53:00,,0819.4,5.00,0.00,23.8,23.1,00.0,32.6,25.6,10.1,0000.0,0021.33,0006.42,0004.30
2022-04-15 16:54:00,,0819.4,5.00,0.00,23.8,23.1,00.0,32.6,25.6,10.2,0000.0,0021.13,0006.39,0004.31
2022-04-15 16:55:00,,0819.4,5.00,0.00,23.8,23.1,00.0,32.6,25.6,10.2,0000.0,0021.06,0006.34,0004.29
2022-04-15 16:56:00,,0819.4,4.99,0.00,23.8,23.1,00.0,32.6,25.6,10.2,0000.0,0020.61,0006.24,0004.27
2022-04-15 16:57:00,,0819.4,5.00,0.00,23.8,23.2,00.0,32.6,25.7,10.3,0000.0,0020.40,0006.25,0004.28
2022-04-15 16:58:00,,0819.4,5.01,0.00,23.9,23.2,00.0,32.7,25.7,10.2,0000.0,0021.37,0006.26,0004.30
2022-04-15 16:59:00,,0819.4,5.00,0.00,23.9,23.2,00.0,32.7,25.7,10.2,0000.0,0022.37,0006.29,0004.31
